Location: Newark
(51.3318°N, 0.0053°E)
Time: 03:27:32
(UTC+00:00)

Envisat - Pass Details

Date: 26 January 2022
Orbit: 764 x 765 km, 98.2° (Epoch: 28 May)

Event Time Altitude Azimuth Distance (km) Brightness Sun altitude
Rises 04:18:02 0° 20° (NNE) 3,243 6.6 -32.3°
Reaches altitude 10° 04:20:32 10° 29° (NNE) 2,312 5.9 -31.9°
Maximum altitude 04:25:13 36° 96° (E) 1,198 4.4 -31.2°
Drops below altitude 10° 04:29:52 10° 163° (SSE) 2,297 5.5 -30.4°
Sets 04:32:20 0° 171° (S) 3,218 6.3 -30.1°
